星链-34065 (STARLINK-34065)

导读 | 星芒AI

STARLINK-34065 是 SpaceX Starlink 卫星互联网项目中的一颗低轨卫星,属于第65批发射的星链卫星之一。该卫星运行在约550公里高度的近地轨道,旨在为全球用户提供高速互联网服务。作为星链星座的一部分,它与其他数千颗卫星协同工作,提升网络覆盖与连接稳定性。该计划致力于改善偏远地区的网络接入,同时推动全球通信技术的发展。

基本信息
目录编号:
63813
目录名称:
STARLINK-34065
国际标识:
2025-092K
轨道中心:
EARTH
卫星名称:
星链-34065
卫星全名:
星链-34065 (STARLINK-34065)
卫星状态:
在轨 (已飞行170 天)
发射日期:
2025-05-04 UTC
国别 :
美国 (US)
星等 :
--
轨道信息
数据来源 国际轨道数据
星历时间: 2025-10-19T11:52:31+0800
2天前
查看轨道信息
半长轴: 6861.022km
偏心率: 0.0001511
轨道倾角: 42.998°
近地点辐角 246.897°
升交点赤经 247.978°
平近点角 113.172°
近地点: 481.85km
远地点: 483.924km
周期: 94.263分钟
每日圈数: 15.276351
详细信息
固有亮度:
5
最大亮度:
2.5
卫星平台:
Starlink V1.0
覆盖范围:
全球
运营商:
太空探索技术公司
运营商所在国:
美国
制造商(研发单位):
太空探索技术公司
制造商所在国:
美国
使用方式:
暂无
卫星简介
Starlink 计划是 SpaceX 推出的全球卫星互联网项目,通过发射低轨道卫星,为全球尤其是偏远地区提供高速、低延迟的互联网服务。自 2019 年起,Starlink 已部署数千颗卫星,旨在缩小全球数字鸿沟,推动互联网普及。该项目还为军事、航空等行业提供通信支持,带来广泛经济效益。
2D轨道图
3D轨道图
轨道高度分析图
轨道倾角分析图
轨道综合分析图
查看轨道综合分析图